Location: Igloolik
(69.3800°N, 81.8000°W)
Time: 11:39:03
(UTC-05:00)

Amateur Radio Satellites - All Passes

Search period start: 27 June 2016 11:09
Search period end: 28 June 2016 11:09
Location: Igloolik, 69.3800°N, 81.8000°W

Satellite Date Start Highest point End Downlink Frequencies (MHz)
Time Altitude Azimuth
Cosmos 2491 27 Jun 11:09:26 11:18:14 88° 249° (WSW) 11:26:59 435.465 / 435.565
ESTCUBE 1 27 Jun 11:10:42 11:14:32 26° 89° (E) 11:18:19 437.505/2401.250
CINEMA 3 27 Jun 11:14:33 11:18:24 32° 317° (NW) 11:22:23 145.822/145.860
YUBILEINY 27 Jun 11:14:43 11:22:11 34° 72° (ENE) 11:29:44 435.215
CUTE 1.7 + AOD 2 27 Jun 11:17:44 11:21:34 32° 318° (NW) 11:25:25 437.475
JAS-2 27 Jun 11:21:02 11:28:20 87° 243° (WSW) 11:34:49 435.910
AISAT 27 Jun 11:21:04 11:24:35 23° 87° (E) 11:28:07 437.250
CUBEBUG 2 27 Jun 11:21:19 11:25:35 47° 308° (NW) 11:30:00 437.445
BUGSAT 1 27 Jun 11:24:10 11:28:08 56° 254° (WSW) 11:32:08 437.445
SEEDS 27 Jun 11:24:25 11:28:17 33° 316° (NW) 11:32:07 437.485
Cosmos 2504 27 Jun 11:24:59 11:30:55 21° 54° (NE) 11:37:01 435.465 / 435.565
UKube-1 27 Jun 11:29:21 11:32:29 19° 84° (E) 11:35:37 .
RS-15 27 Jun 11:30:23 11:39:48 30° 107° (ESE) 11:49:31 29.354- 29.394
SPROUT 27 Jun 11:33:42 11:36:39 18° 82° (E) 11:39:36 437.525
Oscar 19 27 Jun 11:34:20 11:39:28 71° 57° (ENE) 11:44:37 437.125/150
BRITE-PL 27 Jun 11:34:54 11:37:42 17° 352° (N) 11:40:26 437.365/2234.400
NANOSAT C BR1 27 Jun 11:36:48 11:40:38 33° 265° (W) 11:44:29 145.865
QB50P1 27 Jun 11:39:01 11:42:49 31° 266° (W) 11:46:38 145.935-145.965
Gurwin Techsat 1B 27 Jun 11:39:37 11:44:49 55° 50° (NE) 11:50:02 435.225
NOAA 15 27 Jun 11:40:11 11:44:23 25° 352° (N) 11:48:33 137.62
POPSAT HIP 1 27 Jun 11:42:09 11:45:55 31° 267° (W) 11:49:43 437.405
HUMSAT D 27 Jun 11:43:46 11:48:06 87° 107° (ESE) 11:52:28 437.325/437.525
DOVE 4 27 Jun 11:45:55 11:48:51 19° 337° (NNW) 11:51:48 437.250
DX 1 27 Jun 11:46:20 11:50:01 26° 90° (E) 11:53:40 434.975-435.025
ANTELSAT 27 Jun 11:47:52 11:50:18 14° 285° (WNW) 11:52:47 437.575/2403.000
HORYU 2 27 Jun 11:48:31 11:51:42 19° 11° (NNE) 11:54:52 437.375
ITAMSAT 1 27 Jun 11:53:56 11:58:52 43° 42° (NE) 12:03:49 435.822/435.867
ZACube-1 27 Jun 11:54:04 11:58:20 47° 308° (NW) 12:02:41 437.345
QB50P2 27 Jun 11:54:28 11:58:02 26° 270° (W) 12:01:38 145.880/145.840
NOAA 18 27 Jun 11:54:33 11:59:05 27° 352° (N) 12:03:40 137.9125
PCSat 27 Jun 11:55:35 11:58:39 15° 248° (WSW) 12:01:43 145.827
POLYITAN 1 27 Jun 11:57:07 12:00:40 26° 270° (W) 12:04:15 437.675
DUCHIFAT 1 27 Jun 11:58:34 12:02:08 26° 270° (W) 12:05:44 145.980
50 SAT 27 Jun 11:59:01 12:02:29 33° 97° (E) 12:05:53 437.505
AUBIESAT-1 27 Jun 12:01:45 12:05:17 57° 315° (NW) 12:09:02 437.475
Oscar 11 27 Jun 12:06:58 12:11:05 40° 312° (NW) 12:15:10 145.826/435.025
AAUSAT CUBESAT 2 27 Jun 12:07:51 12:11:27 28° 321° (NW) 12:15:02 437.432
HO-68 27 Jun 12:10:28 12:17:18 49° 330° (NNW) 12:24:10 435.675
LilacSat-2 27 Jun 12:11:22 12:13:08 13° 356° (N) 12:14:54 437.200
Cubesat XI-IV 27 Jun 12:11:54 12:16:11 25° 356° (N) 12:20:27 437.490
UWE-3 27 Jun 12:11:56 12:15:58 35° 316° (NW) 12:20:06 435.000/436.395/437.385
CUBEBUG 1 27 Jun 12:12:24 12:16:34 42° 100° (E) 12:20:42 437.445
FUNcube-1 27 Jun 12:12:31 12:16:41 40° 312° (NW) 12:20:55 145.935
GOMX 1 27 Jun 12:16:00 12:18:32 16° 353° (N) 12:21:01 467.674
VELOX 1 27 Jun 12:16:39 12:20:52 42° 100° (E) 12:25:04 145.980
O/OREOS (USA 219) 27 Jun 12:25:03 12:28:41 25° 245° (WSW) 12:32:19 437.305
DELFI C3 27 Jun 12:31:20 12:35:06 38° 311° (NW) 12:38:50 145.870
CANX-2 27 Jun 12:33:16 12:36:22 20° 337° (NNW) 12:39:28 2200.000
AIST 2 27 Jun 12:36:31 12:39:47 22° 220° (SW) 12:43:02 435.215
M-CUBED/EXP-1 PRIME 27 Jun 12:40:03 12:43:18 37° 325° (NW) 12:46:45 437.505
COMPASS 1 27 Jun 12:40:37 12:43:49 21° 331° (NNW) 12:47:03 437.405
CUSAT 1 27 Jun 12:44:16 12:49:20 25° 349° (N) 12:53:27 437.405
SWISSCUBE 27 Jun 12:46:22 12:48:07 12° 70° (ENE) 12:49:51 437.505
CUTE-I 27 Jun 12:46:23 12:50:39 25° 4° (N) 12:54:55 437.470
ESTCUBE 1 27 Jun 12:47:27 12:52:02 78° 112° (ESE) 12:56:34 437.505/2401.250
DANDE 27 Jun 12:51:38 12:58:32 34° 342° (NNW) 13:04:13 436.750
CINEMA 3 27 Jun 12:51:42 12:54:40 19° 340° (NNW) 12:57:42 145.822/145.860
CUTE 1.7 + AOD 2 27 Jun 12:53:33 12:56:30 18° 340° (NNW) 12:59:28 437.475
AISAT 27 Jun 12:57:25 13:01:50 70° 110° (ESE) 13:06:14 437.250
CUBEBUG 2 27 Jun 12:58:04 13:01:33 23° 330° (NNW) 13:05:07 437.445
AO-7 27 Jun 12:59:04 13:07:25 74° 44° (NE) 13:15:48 29.400- 29.500
TISAT 1 27 Jun 12:59:07 13:02:37 25° 89° (E) 13:06:06 437.305
SEEDS 27 Jun 13:00:08 13:03:06 19° 339° (NNW) 13:06:04 437.485
BUGSAT 1 27 Jun 13:01:40 13:04:23 17° 277° (W) 13:07:07 437.445
UKube-1 27 Jun 13:05:07 13:09:25 59° 107° (ESE) 13:13:42 .
Cosmos 2491 27 Jun 13:06:26 13:14:28 44° 278° (W) 13:22:30 435.465 / 435.565
JAS-2 27 Jun 13:07:22 13:14:07 40° 268° (W) 13:20:13 435.910
YUBILEINY 27 Jun 13:09:10 13:17:50 70° 99° (E) 13:26:35 435.215
SPROUT 27 Jun 13:09:18 13:13:32 55° 104° (ESE) 13:17:46 437.525
BEESAT 27 Jun 13:11:18 13:14:02 15° 75° (ENE) 13:16:44 436.000
ITUPSAT 1 27 Jun 13:11:24 13:14:08 15° 75° (ENE) 13:16:50 437.325
BRITE-PL 27 Jun 13:11:57 13:14:59 18° 16° (NNE) 13:17:55 437.365/2234.400
Oscar 19 27 Jun 13:14:13 13:19:09 44° 261° (W) 13:24:06 437.125/150
Cosmos 2504 27 Jun 13:14:23 13:22:13 44° 82° (E) 13:30:24 435.465 / 435.565
NANOSAT C BR1 27 Jun 13:16:38 13:17:41 11° 288° (WNW) 13:18:45 145.865
NOAA 15 27 Jun 13:18:41 13:23:00 26° 16° (NNE) 13:27:20 137.62
QB50P1 27 Jun 13:19:20 13:19:57 10° 289° (WNW) 13:20:35 145.935-145.965
Gurwin Techsat 1B 27 Jun 13:19:32 13:24:50 64° 253° (WSW) 13:30:11 435.225
HUMSAT D 27 Jun 13:19:35 13:23:31 35° 315° (NW) 13:27:27 437.325/437.525
DX 1 27 Jun 13:22:28 13:26:51 81° 113° (ESE) 13:31:12 434.975-435.025
DOVE 4 27 Jun 13:23:00 13:25:23 15° 1° (N) 13:27:47 437.250
HORYU 2 27 Jun 13:23:25 13:27:16 29° 35° (NE) 13:31:09 437.375
ZACube-1 27 Jun 13:30:28 13:33:56 23° 331° (NNW) 13:37:29 437.345
50 SAT 27 Jun 13:32:43 13:36:28 66° 298° (WNW) 13:40:09 437.505
ITAMSAT 1 27 Jun 13:32:53 13:38:09 85° 246° (WSW) 13:43:27 435.822/435.867
NOAA 18 27 Jun 13:33:58 13:38:38 29° 17° (NNE) 13:43:20 137.9125
AUBIESAT-1 27 Jun 13:36:24 13:39:26 27° 336° (NNW) 13:42:36 437.475
RS-15 27 Jun 13:38:31 13:49:43 54° 137° (SE) 14:01:23 29.354- 29.394
Oscar 11 27 Jun 13:43:09 13:46:26 21° 335° (NNW) 13:49:42 145.826/435.025
AAUSAT CUBESAT 2 27 Jun 13:43:16 13:45:58 17° 344° (NNW) 13:48:40 437.432
LilacSat-2 27 Jun 13:44:00 13:46:14 15° 19° (NNE) 13:48:28 437.200
UWE-3 27 Jun 13:48:23 13:51:34 20° 339° (NNW) 13:54:48 435.000/436.395/437.385
CUBEBUG 1 27 Jun 13:48:49 13:53:07 63° 302° (WNW) 13:57:24 437.445
FUNcube-1 27 Jun 13:48:49 13:52:08 21° 335° (NNW) 13:55:31 145.935
Cubesat XI-IV 27 Jun 13:50:36 13:55:06 28° 20° (NNE) 13:59:37 437.490
GOMX 1 27 Jun 13:52:38 13:55:25 17° 17° (NNE) 13:58:10 467.674
VELOX 1 27 Jun 13:53:14 13:57:37 65° 302° (WNW) 14:01:59 145.980
HO-68 27 Jun 13:57:33 14:04:03 38° 355° (N) 14:10:33 435.675
DELFI C3 27 Jun 14:06:20 14:09:12 19° 334° (NNW) 14:12:04 145.870
CANX-2 27 Jun 14:08:27 14:11:02 16° 0° (N) 14:13:37 2200.000
M-CUBED/EXP-1 PRIME 27 Jun 14:14:37 14:17:20 22° 347° (NNW) 14:20:10 437.505
COMPASS 1 27 Jun 14:15:46 14:18:16 15° 354° (N) 14:20:45 437.405
Cosmos 2499 27 Jun 14:19:12 14:21:26 11° 25° (NNE) 14:23:42 435.465 / 435.565
KKS-1 27 Jun 14:22:45 14:23:56 11° 71° (ENE) 14:25:07 437.445
SWISSCUBE 27 Jun 14:23:04 14:27:26 33° 94° (E) 14:31:48 437.505
ESTCUBE 1 27 Jun 14:24:27 14:28:41 40° 314° (NW) 14:32:55 437.505/2401.250
CUTE-I 27 Jun 14:24:54 14:29:37 32° 28° (NNE) 14:34:21 437.470
CINEMA 3 27 Jun 14:28:02 14:30:37 16° 4° (N) 14:33:14 145.822/145.860
CUSAT 1 27 Jun 14:28:17 14:33:05 26° 16° (NNE) 14:36:57 437.405
CUTE 1.7 + AOD 2 27 Jun 14:28:32 14:31:08 16° 4° (N) 14:33:44 437.475
AISAT 27 Jun 14:34:04 14:38:14 42° 312° (NW) 14:42:23 437.250
CUBEBUG 2 27 Jun 14:34:17 14:37:04 17° 354° (N) 14:39:53 437.445
TISAT 1 27 Jun 14:34:41 14:38:54 79° 111° (ESE) 14:43:08 437.305
SEEDS 27 Jun 14:35:04 14:37:36 15° 2° (N) 14:40:07 437.485
DANDE 27 Jun 14:36:47 14:43:14 32° 9° (N) 14:48:27 436.750
UKube-1 27 Jun 14:41:19 14:45:30 48° 309° (NW) 14:49:40 .
SPROUT 27 Jun 14:45:24 14:49:34 50° 307° (NW) 14:53:43 437.525
BRITE-PL 27 Jun 14:48:30 14:52:32 30° 39° (NE) 14:56:20 437.365/2234.400
BEESAT 27 Jun 14:48:31 14:53:07 41° 99° (E) 14:57:41 436.000
ITUPSAT 1 27 Jun 14:48:41 14:53:17 41° 99° (E) 14:57:51 437.325
AO-7 27 Jun 14:52:18 15:00:36 63° 250° (WSW) 15:08:58 29.400- 29.500
HUMSAT D 27 Jun 14:55:14 14:58:17 19° 338° (NNW) 15:01:22 437.325/437.525
Oscar 19 27 Jun 14:56:36 14:59:49 16° 284° (WNW) 15:03:03 437.125/150
JAS-2 27 Jun 14:56:39 15:01:03 17° 292° (WNW) 15:05:12 435.910
NOAA 15 27 Jun 14:56:58 15:01:54 41° 40° (NE) 15:06:51 137.62
STARS 27 Jun 14:58:11 14:59:49 12° 73° (ENE) 15:01:28 437.465
DX 1 27 Jun 14:58:50 15:02:52 38° 315° (NW) 15:06:54 434.975-435.025
HORYU 2 27 Jun 14:58:56 15:03:22 66° 58° (ENE) 15:07:51 437.375
DOVE 4 27 Jun 14:58:58 15:01:56 19° 25° (NNE) 15:04:56 437.250
Gurwin Techsat 1B 27 Jun 15:01:33 15:05:49 24° 276° (W) 15:10:07 435.225
Cosmos 2491 27 Jun 15:03:15 15:09:11 21° 306° (NW) 15:15:06 435.465 / 435.565
ZACube-1 27 Jun 15:06:18 15:09:06 17° 354° (N) 15:11:55 437.345
YUBILEINY 27 Jun 15:06:21 15:15:03 63° 308° (NW) 15:23:50 435.215
Cosmos 2504 27 Jun 15:06:28 15:15:00 87° 107° (ESE) 15:23:58 435.465 / 435.565
50 SAT 27 Jun 15:06:38 15:09:43 24° 321° (NW) 15:12:47 437.505
AUBIESAT-1 27 Jun 15:10:35 15:13:14 21° 359° (N) 15:16:00 437.475
NOAA 18 27 Jun 15:13:15 15:18:28 46° 41° (NE) 15:23:45 137.9125
ITAMSAT 1 27 Jun 15:13:38 15:18:19 32° 268° (W) 15:23:01 435.822/435.867
LilacSat-2 27 Jun 15:16:22 15:19:37 27° 42° (NE) 15:22:54 437.200
AAUSAT CUBESAT 2 27 Jun 15:17:45 15:20:14 15° 7° (N) 15:22:42 437.432
Oscar 11 27 Jun 15:18:41 15:21:24 16° 358° (N) 15:24:07 145.826/435.025
GONETS M04 27 Jun 15:19:41 15:24:58 18° 48° (NE) 15:30:15
UWE-3 27 Jun 15:24:04 15:26:49 17° 2° (N) 15:29:37 435.000/436.395/437.385
FUNcube-1 27 Jun 15:24:28 15:27:13 17° 358° (N) 15:30:00 145.935
CUBEBUG 1 27 Jun 15:25:16 15:28:55 27° 325° (NW) 15:32:35 437.445
GOMX 1 27 Jun 15:28:51 15:32:36 29° 40° (NE) 15:36:15 467.674
Cubesat XI-IV 27 Jun 15:29:15 15:34:22 46° 44° (NE) 15:39:31 437.490
VELOX 1 27 Jun 15:29:51 15:33:37 28° 325° (NW) 15:37:23 145.980
MOZHAYETS 4 27 Jun 15:38:51 15:42:52 27° 89° (E) 15:46:52
DELFI C3 27 Jun 15:40:46 15:42:55 14° 357° (N) 15:45:05 145.870
CANX-2 27 Jun 15:42:36 15:45:42 20° 23° (NNE) 15:48:49 2200.000
HO-68 27 Jun 15:44:00 15:50:40 43° 21° (NNE) 15:57:22 435.675
M-CUBED/EXP-1 PRIME 27 Jun 15:48:32 15:51:10 21° 10° (N) 15:53:55 437.505
RS-15 27 Jun 15:49:21 16:01:09 71° 168° (SSE) 16:13:22 29.354- 29.394
COMPASS 1 27 Jun 15:49:50 15:52:36 17° 17° (NNE) 15:55:23 437.405
KKS-1 27 Jun 15:57:53 16:01:56 32° 95° (E) 16:05:56 437.445
SWISSCUBE 27 Jun 16:00:55 16:05:47 87° 296° (WNW) 16:10:38 437.505
ESTCUBE 1 27 Jun 16:01:14 16:04:43 22° 337° (NNW) 16:08:10 437.505/2401.250
CUTE 1.7 + AOD 2 27 Jun 16:02:35 16:05:49 21° 27° (NNE) 16:09:04 437.475
CINEMA 3 27 Jun 16:03:25 16:06:37 21° 28° (NNE) 16:09:53 145.822/145.860
CUTE-I 27 Jun 16:03:46 16:09:04 60° 52° (NE) 16:14:23 437.470
Cosmos 2499 27 Jun 16:05:15 16:11:09 21° 53° (NE) 16:17:07 435.465 / 435.565
SEEDS 27 Jun 16:09:00 16:12:08 20° 26° (NNE) 16:15:16 437.485
CUBEBUG 2 27 Jun 16:09:28 16:12:28 19° 17° (NNE) 16:15:31 437.445
TISAT 1 27 Jun 16:10:32 16:14:24 37° 314° (NW) 16:18:17 437.305
AISAT 27 Jun 16:10:35 16:13:59 22° 335° (NNW) 16:17:23 437.250
CUSAT 1 27 Jun 16:11:16 16:16:30 45° 44° (NE) 16:20:27 437.405
UKube-1 27 Jun 16:17:28 16:20:55 24° 332° (NNW) 16:24:21 .
SO-50 27 Jun 16:19:01 16:21:30 14° 123° (ESE) 16:23:58 436.795
DANDE 27 Jun 16:21:00 16:27:43 44° 37° (NE) 16:32:51 436.750
SPROUT 27 Jun 16:21:30 16:24:53 23° 329° (NNW) 16:28:17 437.525
BRITE-PL 27 Jun 16:25:55 16:30:40 72° 61° (ENE) 16:35:04 437.365/2234.400
BEESAT 27 Jun 16:26:26 16:31:16 72° 301° (WNW) 16:36:04 436.000
ITUPSAT 1 27 Jun 16:26:39 16:31:29 72° 302° (WNW) 16:36:18 437.325
HUMSAT D 27 Jun 16:30:10 16:32:44 16° 1° (N) 16:35:19 437.325/437.525
AIST 1 27 Jun 16:31:08 16:34:52 29° 89° (E) 16:38:36
STARS 27 Jun 16:33:25 16:37:30 35° 96° (E) 16:41:33 437.465
DOVE 4 27 Jun 16:35:00 16:38:54 38° 48° (NE) 16:42:46 437.250
DX 1 27 Jun 16:35:01 16:38:17 21° 338° (NNW) 16:41:32 434.975-435.025
HORYU 2 27 Jun 16:35:58 16:40:14 42° 260° (W) 16:44:31 437.375
NOAA 15 27 Jun 16:36:07 16:41:27 90° 171° (S) 16:46:46 137.62
50 SAT 27 Jun 16:40:25 16:42:28 14° 344° (NNW) 16:44:30 437.505
ZACube-1 27 Jun 16:41:08 16:44:10 19° 18° (NNE) 16:47:15 437.345
AUBIESAT-1 27 Jun 16:44:09 16:47:01 26° 22° (NNE) 16:50:02 437.475
AO-7 27 Jun 16:48:01 16:55:08 30° 277° (W) 17:02:18 29.400- 29.500
LilacSat-2 27 Jun 16:49:45 16:53:34 76° 64° (ENE) 16:57:26 437.200
AAUSAT CUBESAT 2 27 Jun 16:51:21 16:54:36 22° 30° (NNE) 16:57:50 437.432
Oscar 11 27 Jun 16:53:11 16:56:20 20° 22° (NNE) 16:59:30 145.826/435.025
NOAA 18 27 Jun 16:53:27 16:58:58 83° 244° (WSW) 17:04:34 137.9125
ITAMSAT 1 27 Jun 16:57:36 16:59:31 12° 293° (WNW) 17:01:27 435.822/435.867
UWE-3 27 Jun 16:58:49 17:02:07 21° 26° (NNE) 17:05:29 435.000/436.395/437.385
FUNcube-1 27 Jun 16:59:07 17:02:16 20° 21° (NNE) 17:05:28 145.935
Cosmos 2491 27 Jun 17:00:30 17:02:31 11° 335° (NNW) 17:04:32 435.465 / 435.565
Cosmos 2504 27 Jun 17:00:55 17:09:17 53° 317° (NW) 17:18:01 435.465 / 435.565
CUBEBUG 1 27 Jun 17:01:20 17:04:13 18° 348° (NNW) 17:07:06 437.445
CUBESAT XI-V 27 Jun 17:03:06 17:07:04 26° 88° (E) 17:10:59 437.345
YUBILEINY 27 Jun 17:05:30 17:13:40 40° 337° (NNW) 17:21:53 435.215
GOMX 1 27 Jun 17:05:59 17:10:23 76° 63° (ENE) 17:14:36 467.674
VELOX 1 27 Jun 17:06:05 17:09:06 18° 348° (NNW) 17:12:08 145.980
Cubesat XI-IV 27 Jun 17:08:55 17:14:19 79° 247° (WSW) 17:19:46 437.490
GONETS M04 27 Jun 17:11:40 17:19:21 37° 76° (ENE) 17:27:03
DELFI C3 27 Jun 17:13:59 17:16:35 17° 20° (NNE) 17:19:10 145.870
MOZHAYETS 4 27 Jun 17:16:00 17:20:43 81° 113° (ESE) 17:25:24
CANX-2 27 Jun 17:16:46 17:20:44 36° 46° (NE) 17:24:43 2200.000
M-CUBED/EXP-1 PRIME 27 Jun 17:22:05 17:25:08 34° 33° (NNE) 17:28:20 437.505
COMPASS 1 27 Jun 17:23:32 17:27:13 29° 40° (NE) 17:30:53 437.405
HO-68 27 Jun 17:30:39 17:37:46 68° 47° (NE) 17:44:55 435.675
KKS-1 27 Jun 17:34:30 17:38:58 84° 299° (WNW) 17:43:27 437.445
CUTE 1.7 + AOD 2 27 Jun 17:36:51 17:40:55 41° 50° (NE) 17:45:00 437.475
ESTCUBE 1 27 Jun 17:37:19 17:40:22 18° 1° (N) 17:43:24 437.505/2401.250
SWISSCUBE 27 Jun 17:38:52 17:43:19 37° 319° (NW) 17:47:44 437.505
CINEMA 3 27 Jun 17:39:05 17:43:04 44° 51° (NE) 17:47:09 145.822/145.860
SEEDS 27 Jun 17:43:04 17:47:03 39° 48° (NE) 17:51:03 437.485
CUTE-I 27 Jun 17:43:59 17:49:17 57° 256° (WSW) 17:54:38 437.470
CUBEBUG 2 27 Jun 17:44:21 17:48:08 31° 41° (NE) 17:52:02 437.445
TISAT 1 27 Jun 17:46:14 17:49:16 20° 337° (NNW) 17:52:19 437.305
AISAT 27 Jun 17:46:28 17:49:21 17° 359° (N) 17:52:14 437.250
UKube-1 27 Jun 17:53:03 17:55:54 17° 355° (N) 17:58:45 .
CUSAT 1 27 Jun 17:53:44 17:58:54 65° 254° (WSW) 18:02:46 437.405
Cosmos 2499 27 Jun 17:54:11 18:02:05 42° 80° (E) 18:10:13 435.465 / 435.565
STRAND 1 27 Jun 17:55:29 17:58:21 15° 73° (ENE) 18:01:13 437.568
SO-50 27 Jun 17:56:35 18:00:48 30° 145° (SE) 18:04:58 436.795
SPROUT 27 Jun 17:57:06 17:59:45 16° 353° (N) 18:02:26 437.525
RS-15 27 Jun 18:01:10 18:13:04 68° 199° (SSW) 18:25:15 29.354- 29.394
HUMSAT D 27 Jun 18:04:05 18:07:11 20° 24° (NNE) 18:10:19 437.325/437.525
BEESAT 27 Jun 18:04:21 18:08:38 32° 324° (NW) 18:12:54 436.000
DANDE 27 Jun 18:04:28 18:11:18 90° 255° (WSW) 18:16:21 436.750
ITUPSAT 1 27 Jun 18:04:36 18:08:54 33° 324° (NW) 18:13:12 437.325
BRITE-PL 27 Jun 18:05:04 18:09:32 38° 263° (W) 18:13:43 437.365/2234.400
AIST 1 27 Jun 18:07:50 18:12:10 85° 294° (WNW) 18:16:29
STARS 27 Jun 18:09:51 18:14:16 77° 299° (WNW) 18:18:41 437.465
DX 1 27 Jun 18:10:29 18:13:21 17° 2° (N) 18:16:13 434.975-435.025
DOVE 4 27 Jun 18:12:18 18:16:31 73° 250° (WSW) 18:20:42 437.250
50 SAT 27 Jun 18:13:15 18:14:58 13° 6° (N) 18:16:40 437.505
HORYU 2 27 Jun 18:15:32 18:17:58 14° 283° (WNW) 18:20:26 437.375
ZACube-1 27 Jun 18:15:41 18:19:30 31° 41° (NE) 18:23:26 437.345
NOAA 15 27 Jun 18:17:02 18:21:51 35° 266° (W) 18:26:42 137.62
AUBIESAT-1 27 Jun 18:17:49 18:21:08 55° 44° (NE) 18:24:36 437.475
LilacSat-2 27 Jun 18:24:52 18:28:16 30° 266° (W) 18:31:42 437.200
AAUSAT CUBESAT 2 27 Jun 18:25:22 18:29:26 47° 53° (NE) 18:33:29 437.432
Oscar 11 27 Jun 18:27:38 18:31:38 36° 45° (NE) 18:35:39 145.826/435.025
FUNcube-1 27 Jun 18:33:42 18:37:39 35° 44° (NE) 18:41:41 145.935
UWE-3 27 Jun 18:33:45 18:37:49 42° 49° (NE) 18:42:00 435.000/436.395/437.385
NOAA 18 27 Jun 18:35:28 18:40:23 33° 268° (W) 18:45:21 137.9125
CUBEBUG 1 27 Jun 18:36:26 18:39:18 18° 12° (NNE) 18:42:10 437.445
CUBESAT XI-V 27 Jun 18:40:28 18:45:10 78° 109° (ESE) 18:49:49 437.345
VELOX 1 27 Jun 18:41:22 18:44:24 18° 12° (NNE) 18:47:25 145.980
GOMX 1 27 Jun 18:44:54 18:48:55 34° 265° (W) 18:52:48 467.674
DELFI C3 27 Jun 18:47:00 18:50:32 30° 42° (NE) 18:54:05 145.870
AO-7 27 Jun 18:47:51 18:51:19 13° 305° (NW) 18:54:48 29.400- 29.500
Cubesat XI-IV 27 Jun 18:50:28 18:55:11 30° 271° (W) 18:59:56 437.490
CANX-2 27 Jun 18:52:03 18:56:23 82° 247° (WSW) 19:00:45 2200.000
MOZHAYETS 4 27 Jun 18:53:21 18:57:43 40° 314° (NW) 19:02:04
M-CUBED/EXP-1 PRIME 27 Jun 18:56:16 18:59:34 82° 236° (SW) 19:03:02 437.505
Cosmos 2504 27 Jun 18:56:49 19:04:47 37° 346° (NNW) 19:12:58 435.465 / 435.565
COMPASS 1 27 Jun 18:58:09 19:02:24 74° 61° (ENE) 19:06:39 437.405
YUBILEINY 27 Jun 19:05:03 19:13:03 36° 9° (N) 19:21:06 435.215
GONETS M04 27 Jun 19:06:35 19:15:16 78° 104° (ESE) 19:23:59
KKS-1 27 Jun 19:11:14 19:15:15 34° 320° (NW) 19:19:15 437.445
CUTE 1.7 + AOD 2 27 Jun 19:12:22 19:16:41 69° 252° (WSW) 19:21:01 437.475
ESTCUBE 1 27 Jun 19:12:30 19:16:01 22° 24° (NNE) 19:19:32 437.505/2401.250
CINEMA 3 27 Jun 19:16:05 19:20:13 61° 254° (WSW) 19:24:28 145.822/145.860
SWISSCUBE 27 Jun 19:16:29 19:20:14 23° 343° (NNW) 19:23:58 437.505
SEEDS 27 Jun 19:18:20 19:22:38 75° 251° (WSW) 19:26:56 437.485
HO-68 27 Jun 19:18:36 19:25:44 63° 252° (WSW) 19:32:55 435.675
CUBEBUG 2 27 Jun 19:20:08 19:24:25 80° 62° (ENE) 19:28:51 437.445
TISAT 1 27 Jun 19:21:15 19:23:47 16° 0° (N) 19:26:20 437.305
AISAT 27 Jun 19:21:23 19:24:42 21° 22° (NNE) 19:28:00 437.250
CUTE-I 27 Jun 19:26:24 19:30:29 22° 279° (W) 19:34:36 437.470
UKube-1 27 Jun 19:27:40 19:30:48 20° 19° (NNE) 19:33:56 .
SPROUT 27 Jun 19:31:39 19:34:30 18° 16° (NNE) 19:37:23 437.525
STRAND 1 27 Jun 19:34:08 19:39:01 39° 97° (E) 19:43:52 437.568
SO-50 27 Jun 19:36:00 19:40:39 46° 168° (SSE) 19:45:12 436.795
CUSAT 1 27 Jun 19:36:23 19:39:59 20° 282° (WNW) 19:42:58 437.405
HUMSAT D 27 Jun 19:38:04 19:42:00 38° 47° (NE) 19:45:59 437.325/437.525
BEESAT 27 Jun 19:41:50 19:45:26 22° 348° (NNW) 19:49:03 436.000
ITUPSAT 1 27 Jun 19:42:08 19:45:46 22° 348° (NNW) 19:49:25 437.325
50 SAT 27 Jun 19:44:55 19:47:33 18° 29° (NNE) 19:50:11 437.505
DX 1 27 Jun 19:45:05 19:48:27 22° 25° (NNE) 19:51:49 434.975-435.025
Cosmos 2499 27 Jun 19:45:50 19:54:31 84° 107° (ESE) 20:03:30 435.465 / 435.565
STARS 27 Jun 19:46:23 19:50:17 31° 321° (NW) 19:54:10 437.465
AIST 1 27 Jun 19:46:28 19:50:20 31° 316° (NW) 19:54:11
BRITE-PL 27 Jun 19:47:04 19:49:17 13° 286° (WNW) 19:51:27 437.365/2234.400
DANDE 27 Jun 19:47:40 19:53:32 36° 274° (W) 19:58:06 436.750
ZACube-1 27 Jun 19:51:08 19:55:26 80° 64° (ENE) 19:59:53 437.345
DOVE 4 27 Jun 19:51:40 19:54:59 22° 274° (W) 19:58:17 437.250
AUBIESAT-1 27 Jun 19:52:37 19:55:50 41° 247° (WSW) 19:59:10 437.475
AAUSAT CUBESAT 2 27 Jun 20:00:47 20:04:56 58° 255° (WSW) 20:09:07 437.432
NOAA 15 27 Jun 20:00:55 20:03:18 13° 291° (WNW) 20:05:41 137.62
Oscar 11 27 Jun 20:03:09 20:07:32 86° 251° (WSW) 20:11:57 145.826/435.025
FUNcube-1 27 Jun 20:09:20 20:13:38 86° 242° (WSW) 20:18:06 145.935
UWE-3 27 Jun 20:09:55 20:14:12 69° 252° (WSW) 20:18:38 435.000/436.395/437.385
CUBEBUG 1 27 Jun 20:10:57 20:14:35 27° 35° (NE) 20:18:14 437.445
RS-15 27 Jun 20:12:57 20:24:14 48° 230° (SW) 20:35:42 29.354- 29.394
VELOX 1 27 Jun 20:16:07 20:19:53 28° 35° (NE) 20:23:39 145.980
CUBESAT XI-V 27 Jun 20:18:01 20:22:25 41° 313° (NW) 20:26:46 437.345
NOAA 18 27 Jun 20:20:40 20:22:53 12° 292° (WNW) 20:25:07 137.9125
DELFI C3 27 Jun 20:21:01 20:25:04 81° 66° (ENE) 20:29:09 145.870
GOMX 1 27 Jun 20:27:12 20:28:21 11° 288° (WNW) 20:29:30 467.674
CANX-2 27 Jun 20:29:13 20:32:52 26° 271° (W) 20:36:33 2200.000
MOZHAYETS 4 27 Jun 20:30:28 20:34:03 22° 337° (NNW) 20:37:38
M-CUBED/EXP-1 PRIME 27 Jun 20:32:05 20:34:42 22° 258° (WSW) 20:37:25 437.505
COMPASS 1 27 Jun 20:34:26 20:38:20 34° 265° (W) 20:42:15 437.405
PRISM 27 Jun 20:34:50 20:38:25 28° 93° (E) 20:41:59 437.425
Cubesat XI-IV 27 Jun 20:35:31 20:37:08 11° 295° (WNW) 20:38:45 437.490
Cosmos 2491 27 Jun 20:44:02 20:47:50 14° 36° (NE) 20:51:38 435.465 / 435.565
KKS-1 27 Jun 20:47:42 20:50:56 20° 343° (NNW) 20:54:10 437.445
ESTCUBE 1 27 Jun 20:47:47 20:52:03 42° 47° (NE) 20:56:21 437.505/2401.250
CUTE 1.7 + AOD 2 27 Jun 20:49:53 20:53:17 22° 275° (W) 20:56:42 437.475
Cosmos 2504 27 Jun 20:52:39 21:00:45 38° 17° (NNE) 21:08:57 435.465 / 435.565
SWISSCUBE 27 Jun 20:53:19 20:56:52 21° 7° (N) 21:00:24 437.505
CINEMA 3 27 Jun 20:55:14 20:58:16 19° 278° (W) 21:01:21 145.822/145.860
TISAT 1 27 Jun 20:55:16 20:58:19 20° 23° (NNE) 21:01:22 437.305
SEEDS 27 Jun 20:55:32 20:59:01 24° 273° (W) 21:02:31 437.485
AISAT 27 Jun 20:56:17 21:00:23 38° 45° (NE) 21:04:28 437.250
CUBEBUG 2 27 Jun 20:57:40 21:01:31 32° 267° (W) 21:05:31 437.445
TIGRISAT 27 Jun 21:00:45 21:02:49 13° 73° (ENE) 21:04:54 435.000
UKube-1 27 Jun 21:02:05 21:06:00 34° 42° (NE) 21:09:56 .
YUBILEINY 27 Jun 21:03:36 21:12:08 49° 39° (NE) 21:20:41 435.215
GONETS M04 27 Jun 21:04:10 21:12:44 57° 312° (NW) 21:21:21
UNISAT 6 27 Jun 21:05:21 21:07:45 14° 74° (ENE) 21:10:11 437.425
SPROUT 27 Jun 21:05:49 21:09:31 29° 39° (NE) 21:13:14 437.525
HO-68 27 Jun 21:08:52 21:14:54 28° 277° (W) 21:20:59 435.675
HUMSAT D 27 Jun 21:13:13 21:17:28 78° 251° (WSW) 21:21:48 437.325/437.525
STRAND 1 27 Jun 21:13:27 21:18:40 79° 300° (WNW) 21:23:51 437.568
SO-50 27 Jun 21:16:04 21:20:42 46° 192° (SSW) 21:25:12 436.795
50 SAT 27 Jun 21:17:02 21:20:33 40° 51° (NE) 21:24:06 437.505
BEESAT 27 Jun 21:18:27 21:22:03 22° 12° (NNE) 21:25:40 436.000
ITUPSAT 1 27 Jun 21:18:48 21:22:27 22° 11° (NNE) 21:26:05 437.325
DX 1 27 Jun 21:19:48 21:23:56 43° 48° (NE) 21:28:04 434.975-435.025
STARS 27 Jun 21:22:36 21:25:44 19° 344° (NNW) 21:28:51 437.465
AIST 1 27 Jun 21:26:20 21:29:14 17° 341° (NNW) 21:32:08
ZACube-1 27 Jun 21:28:17 21:32:12 33° 267° (W) 21:36:12 437.345
AUBIESAT-1 27 Jun 21:30:04 21:31:19 12° 270° (W) 21:32:35 437.475
DANDE 27 Jun 21:31:21 21:34:29 14° 300° (WNW) 21:37:16 436.750
AAUSAT CUBESAT 2 27 Jun 21:38:18 21:41:18 19° 278° (W) 21:44:18 437.432
Cosmos 2499 27 Jun 21:39:53 21:48:26 55° 315° (NW) 21:57:13 435.465 / 435.565
Oscar 11 27 Jun 21:40:29 21:44:15 28° 270° (W) 21:48:03 145.826/435.025
ANTELSAT 27 Jun 21:44:45 21:48:18 21° 84° (E) 21:51:52 437.575/2403.000
CUBEBUG 1 27 Jun 21:46:04 21:50:22 61° 58° (ENE) 21:54:40 437.445
FUNcube-1 27 Jun 21:46:48 21:50:30 28° 271° (W) 21:54:19 145.935
UWE-3 27 Jun 21:48:05 21:51:28 22° 275° (W) 21:54:56 435.000/436.395/437.385
AO-85 27 Jun 21:49:34 21:52:27 15° 122° (ESE) 21:55:16 145.980
VELOX 1 27 Jun 21:51:30 21:55:53 65° 57° (ENE) 22:00:16 145.980
CUBESAT XI-V 27 Jun 21:55:23 21:58:59 22° 337° (NNW) 22:02:34 437.345
DELFI C3 27 Jun 21:56:46 22:00:22 30° 267° (W) 22:04:00 145.870
MOZHAYETS 4 27 Jun 22:06:52 22:10:02 18° 1° (N) 22:13:12
PRISM 27 Jun 22:10:05 22:14:15 89° 299° (WNW) 22:18:22 437.425
COMPASS 1 27 Jun 22:13:45 22:15:11 11° 288° (WNW) 22:16:37 437.405
JAS-2 27 Jun 22:17:31 22:17:37 10° 53° (NE) 22:17:43 435.910
KKS-1 27 Jun 22:23:20 22:26:21 18° 6° (N) 22:29:22 437.445
ESTCUBE 1 27 Jun 22:24:12 22:28:46 74° 250° (WSW) 22:33:20 437.505/2401.250
RS-15 27 Jun 22:24:48 22:33:47 25° 259° (W) 22:42:51 29.354- 29.394
TISAT 1 27 Jun 22:29:19 22:33:11 37° 46° (NE) 22:37:05 437.305
SWISSCUBE 27 Jun 22:29:30 22:33:36 29° 30° (NNE) 22:37:43 437.505
AISAT 27 Jun 22:32:16 22:36:42 80° 248° (WSW) 22:41:08 437.250
Cosmos 2491 27 Jun 22:34:43 22:41:38 27° 65° (ENE) 22:48:32 435.465 / 435.565
TIGRISAT 27 Jun 22:36:34 22:40:49 37° 96° (E) 22:45:09 435.000
UKube-1 27 Jun 22:37:27 22:41:47 88° 68° (ENE) 22:46:09 .
CUBEBUG 2 27 Jun 22:38:31 22:39:35 11° 291° (WNW) 22:40:39 437.445
SPROUT 27 Jun 22:40:49 22:45:05 73° 61° (ENE) 22:49:22 437.525
UNISAT 6 27 Jun 22:41:23 22:45:43 40° 98° (E) 22:50:07 437.425
Cosmos 2504 27 Jun 22:47:27 22:56:10 55° 46° (NE) 23:04:52 435.465 / 435.565
HUMSAT D 27 Jun 22:50:16 22:53:46 24° 272° (W) 22:57:18 437.325/437.525
50 SAT 27 Jun 22:50:29 22:54:12 61° 253° (WSW) 22:57:57 437.505
BUGSAT 1 27 Jun 22:52:35 22:53:55 11° 75° (ENE) 22:55:13 437.445
STRAND 1 27 Jun 22:52:45 22:57:29 37° 323° (NW) 23:02:12 437.568
BEESAT 27 Jun 22:54:37 22:58:52 32° 35° (NE) 23:03:08 436.000
ITUPSAT 1 27 Jun 22:55:02 22:59:18 32° 35° (NE) 23:03:35 437.325
DX 1 27 Jun 22:55:43 23:00:04 68° 251° (WSW) 23:04:25 434.975-435.025
SO-50 27 Jun 22:56:22 23:00:31 29° 215° (SW) 23:04:34 436.795
STARS 27 Jun 22:57:58 23:00:55 18° 8° (N) 23:03:54 437.465
YUBILEINY 27 Jun 23:01:09 23:10:02 87° 68° (ENE) 23:18:56 435.215
HO-68 27 Jun 23:03:08 23:05:29 12° 305° (NW) 23:07:50 435.675
GONETS M04 27 Jun 23:03:32 23:11:32 38° 342° (NNW) 23:19:35
AIST 1 27 Jun 23:05:58 23:08:32 15° 7° (N) 23:11:06
NANOSAT C BR1 27 Jun 23:06:08 23:09:25 21° 86° (E) 23:12:41 145.865
QB50P1 27 Jun 23:08:34 23:11:57 22° 87° (E) 23:15:19 145.935-145.965
ZACube-1 27 Jun 23:08:38 23:09:53 11° 290° (WNW) 23:11:10 437.345
POPSAT HIP 1 27 Jun 23:11:41 23:15:06 23° 88° (E) 23:18:32 437.405
ANTELSAT 27 Jun 23:21:18 23:25:52 63° 107° (ESE) 23:30:30 437.575/2403.000
CUBEBUG 1 27 Jun 23:22:43 23:26:54 44° 260° (W) 23:31:06 437.445
QB50P2 27 Jun 23:23:43 23:27:24 27° 91° (E) 23:31:04 145.880/145.840
POLYITAN 1 27 Jun 23:26:20 23:30:02 28° 91° (E) 23:33:44 437.675
DUCHIFAT 1 27 Jun 23:27:05 23:30:41 26° 90° (E) 23:34:17 145.980
AO-85 27 Jun 23:27:13 23:31:48 31° 145° (SE) 23:36:08 145.980
VELOX 1 27 Jun 23:28:25 23:32:38 42° 260° (W) 23:36:51 145.980
CUBESAT XI-V 27 Jun 23:32:01 23:35:11 18° 0° (N) 23:38:20 437.345
Cosmos 2499 27 Jun 23:35:30 23:43:37 38° 344° (NNW) 23:51:48 435.465 / 435.565
MOZHAYETS 4 27 Jun 23:42:23 23:46:02 23° 25° (NNE) 23:49:40
PRISM 27 Jun 23:45:36 23:49:19 33° 318° (NW) 23:53:00 437.425
KKS-1 27 Jun 23:58:14 00:01:52 25° 30° (NNE) 00:05:30 437.445
JAS-2 28 Jun 00:00:10 00:05:19 26° 80° (E) 00:10:01 435.910
ESTCUBE 1 28 Jun 00:02:33 00:06:18 25° 272° (W) 00:10:04 437.505/2401.250
TISAT 1 28 Jun 00:04:30 00:08:42 77° 250° (WSW) 00:12:55 437.305
SWISSCUBE 28 Jun 00:06:05 00:10:50 58° 53° (NE) 00:15:35 437.505
AISAT 28 Jun 00:10:07 00:13:50 26° 270° (W) 00:17:33 437.250
TIGRISAT 28 Jun 00:13:21 00:17:55 76° 298° (WNW) 00:22:34 435.000
UKube-1 28 Jun 00:14:32 00:18:22 30° 267° (W) 00:22:12 .
SPROUT 28 Jun 00:17:28 00:21:24 35° 264° (W) 00:25:23 437.525
UNISAT 6 28 Jun 00:18:13 00:22:46 71° 300° (WNW) 00:27:24 437.425
50 SAT 28 Jun 00:26:03 00:28:38 17° 275° (W) 00:31:13 437.505
BUGSAT 1 28 Jun 00:26:43 00:30:29 35° 97° (E) 00:34:17 437.445
Cosmos 2491 28 Jun 00:28:25 00:36:55 58° 92° (E) 00:45:23 435.465 / 435.565
BEESAT 28 Jun 00:31:26 00:36:13 71° 58° (ENE) 00:41:02 436.000
STRAND 1 28 Jun 00:31:37 00:35:43 24° 347° (NNW) 00:39:49 437.568
ITUPSAT 1 28 Jun 00:31:53 00:36:42 71° 58° (ENE) 00:41:33 437.325
STARS 28 Jun 00:32:38 00:36:15 26° 31° (NNE) 00:39:53 437.465
DX 1 28 Jun 00:33:36 00:37:02 22° 273° (W) 00:40:28 434.975-435.025
SO-50 28 Jun 00:37:29 00:39:47 14° 238° (WSW) 00:42:03 436.795
Cosmos 2504 28 Jun 00:41:25 00:50:21 83° 254° (WSW) 00:59:13 435.465 / 435.565
NANOSAT C BR1 28 Jun 00:41:40 00:45:55 67° 109° (ESE) 00:50:10 145.865
QB50P1 28 Jun 00:44:11 00:48:27 71° 109° (ESE) 00:52:43 145.935-145.965
AIST 1 28 Jun 00:44:18 00:47:42 22° 32° (NNE) 00:51:04
AO-7 28 Jun 00:45:31 00:46:36 10° 47° (NE) 00:47:40 29.400- 29.500
POPSAT HIP 1 28 Jun 00:47:20 00:51:36 73° 110° (ESE) 00:55:52 437.405
YUBILEINY 28 Jun 00:58:08 01:06:25 48° 275° (W) 01:14:43 435.215
ANTELSAT 28 Jun 00:58:12 01:02:35 48° 309° (NW) 01:07:03 437.575/2403.000
QB50P2 28 Jun 00:59:29 01:03:46 87° 113° (ESE) 01:08:04 145.880/145.840
CUBEBUG 1 28 Jun 01:01:51 01:04:19 15° 283° (WNW) 01:06:46 437.445
POLYITAN 1 28 Jun 01:02:06 01:06:23 88° 107° (ESE) 01:10:42 437.675
DUCHIFAT 1 28 Jun 01:02:43 01:06:58 84° 110° (ESE) 01:11:14 145.980
GONETS M04 28 Jun 01:02:59 01:10:58 37° 14° (NNE) 01:18:55
AO-85 28 Jun 01:06:42 01:11:41 48° 167° (SSE) 01:16:18 145.980
CUBESAT XI-V 28 Jun 01:07:45 01:11:23 23° 24° (NNE) 01:15:00 437.345
VELOX 1 28 Jun 01:07:51 01:10:16 14° 283° (WNW) 01:12:41 145.980
Oscar 19 28 Jun 01:10:21 01:14:47 28° 89° (E) 01:19:10 437.125/150
MOZHAYETS 4 28 Jun 01:18:01 01:22:25 43° 47° (NE) 01:26:50
Gurwin Techsat 1B 28 Jun 01:20:44 01:24:52 22° 81° (E) 01:28:58 435.225
PRISM 28 Jun 01:20:54 01:23:47 19° 341° (NNW) 01:26:39 437.425
Cosmos 2499 28 Jun 01:31:09 01:39:18 38° 14° (NNE) 01:47:24 435.465 / 435.565
ITAMSAT 1 28 Jun 01:31:25 01:34:18 15° 72° (ENE) 01:37:10 435.822/435.867
KKS-1 28 Jun 01:33:31 01:37:49 52° 52° (NE) 01:42:10 437.445
TISAT 1 28 Jun 01:41:35 01:45:01 24° 271° (W) 01:48:27 437.305
SWISSCUBE 28 Jun 01:44:04 01:48:48 53° 256° (WSW) 01:53:32 437.505
JAS-2 28 Jun 01:45:23 01:51:42 67° 107° (ESE) 01:57:17 435.910
TIGRISAT 28 Jun 01:50:13 01:54:14 32° 320° (NW) 01:58:20 435.000
UNISAT 6 28 Jun 01:55:06 01:59:04 30° 322° (NW) 02:03:06 437.425
SPROUT 28 Jun 01:57:06 01:58:39 12° 287° (WNW) 02:00:12 437.525
BUGSAT 1 28 Jun 02:02:09 02:06:12 70° 299° (WNW) 02:10:17 437.445
STARS 28 Jun 02:07:46 02:12:03 56° 54° (NE) 02:16:22 437.465
STRAND 1 28 Jun 02:09:39 02:13:43 24° 11° (N) 02:17:46 437.568
BEESAT 28 Jun 02:09:47 02:14:21 42° 261° (W) 02:18:57 436.000
ITUPSAT 1 28 Jun 02:10:17 02:14:53 42° 261° (W) 02:19:31 437.325
NANOSAT C BR1 28 Jun 02:17:35 02:21:36 42° 311° (NW) 02:25:37 145.865
QB50P1 28 Jun 02:20:09 02:24:08 40° 312° (NW) 02:28:08 145.935-145.965
AIST 1 28 Jun 02:22:04 02:26:16 49° 57° (ENE) 02:30:25
POPSAT HIP 1 28 Jun 02:23:18 02:27:16 40° 312° (NW) 02:31:15 437.405
Cosmos 2491 28 Jun 02:24:58 02:33:45 74° 300° (WNW) 02:42:32 435.465 / 435.565
Cosmos 2504 28 Jun 02:34:56 02:43:02 42° 280° (W) 02:51:06 435.465 / 435.565
ANTELSAT 28 Jun 02:35:00 02:38:37 24° 331° (NNW) 02:42:18 437.575/2403.000
QB50P2 28 Jun 02:35:29 02:39:21 35° 316° (NW) 02:43:14 145.880/145.840
AO-7 28 Jun 02:36:37 02:43:13 25° 77° (ENE) 02:49:47 29.400- 29.500
POLYITAN 1 28 Jun 02:38:06 02:41:58 35° 316° (NW) 02:45:51 437.675
DUCHIFAT 1 28 Jun 02:38:36 02:42:29 36° 315° (NW) 02:46:21 145.980
CUBESAT XI-V 28 Jun 02:43:33 02:47:58 41° 47° (NE) 02:52:22 437.345
AO-85 28 Jun 02:46:51 02:51:45 48° 191° (S) 02:56:15 145.980
Oscar 19 28 Jun 02:49:44 02:54:54 76° 112° (ESE) 03:00:03 437.125/150
PCSat 28 Jun 02:49:51 02:54:06 24° 124° (ESE) 02:58:24 145.827
O/OREOS (USA 219) 28 Jun 02:51:37 02:54:57 21° 111° (ESE) 02:58:18 437.305
MOZHAYETS 4 28 Jun 02:54:49 02:59:29 74° 250° (WSW) 03:04:11
YUBILEINY 28 Jun 02:54:55 03:01:14 23° 303° (WNW) 03:07:34 435.215
PRISM 28 Jun 02:55:26 02:57:58 16° 4° (N) 03:00:29 437.425
Gurwin Techsat 1B 28 Jun 03:00:37 03:05:55 58° 105° (ESE) 03:11:12 435.225
GONETS M04 28 Jun 03:01:22 03:09:54 53° 44° (NE) 03:18:25
KKS-1 28 Jun 03:10:08 03:14:29 55° 255° (WSW) 03:18:53 437.445
ITAMSAT 1 28 Jun 03:10:21 03:15:17 39° 96° (E) 03:20:12 435.822/435.867
BEESAT 3 28 Jun 03:12:20 03:14:01 12° 126° (SE) 03:15:43 437.485
SWISSCUBE 28 Jun 03:24:16 03:27:40 19° 279° (W) 03:31:05 437.505
Cosmos 2499 28 Jun 03:25:47 03:34:32 53° 43° (NE) 03:43:05 435.465 / 435.565
TIGRISAT 28 Jun 03:26:46 03:29:59 20° 343° (NNW) 03:33:15 435.000
JAS-2 28 Jun 03:30:36 03:36:52 56° 313° (NW) 03:42:23 435.910
UNISAT 6 28 Jun 03:31:38 03:34:49 19° 345° (NNW) 03:38:02 437.425
BUGSAT 1 28 Jun 03:37:45 03:41:11 27° 322° (NW) 03:44:40 437.445
STARS 28 Jun 03:44:18 03:48:34 50° 256° (WSW) 03:52:52 437.465
STRAND 1 28 Jun 03:47:15 03:51:53 35° 35° (NE) 03:56:33 437.568
BEESAT 2 28 Jun 03:48:12 03:50:22 14° 129° (SE) 03:52:32 435.950
BEESAT 28 Jun 03:50:41 03:53:26 15° 284° (WNW) 03:56:13 436.000
ITUPSAT 1 28 Jun 03:51:12 03:54:01 15° 284° (WNW) 03:56:50 437.325
NANOSAT C BR1 28 Jun 03:53:25 03:56:37 21° 333° (NNW) 03:59:49 145.865
QB50P1 28 Jun 03:56:01 03:59:11 21° 334° (NNW) 04:02:21 145.935-145.965
POPSAT HIP 1 28 Jun 03:59:10 04:02:19 21° 335° (NNW) 04:05:28 437.405
AIST 1 28 Jun 03:59:49 04:03:59 52° 260° (W) 04:08:08
ANTELSAT 28 Jun 04:11:13 04:14:13 18° 355° (N) 04:17:15 437.575/2403.000
QB50P2 28 Jun 04:11:18 04:14:20 19° 339° (NNW) 04:17:21 145.880/145.840
HORYU 2 28 Jun 04:12:07 04:15:20 19° 83° (E) 04:18:32 437.375
POLYITAN 1 28 Jun 04:13:55 04:16:56 19° 339° (NNW) 04:19:58 437.675
DUCHIFAT 1 28 Jun 04:14:21 04:17:22 19° 338° (NNW) 04:20:23 145.980
CUBESAT XI-V 28 Jun 04:20:30 04:25:13 77° 249° (WSW) 04:29:56 437.345
Cosmos 2491 28 Jun 04:23:46 04:32:03 44° 329° (NNW) 04:40:20 435.465 / 435.565
AO-85 28 Jun 04:27:13 04:31:35 32° 215° (SW) 04:35:38 145.980
Cosmos 2504 28 Jun 04:28:17 04:34:16 21° 307° (NW) 04:40:14 435.465 / 435.565
PRISM 28 Jun 04:29:02 04:32:12 21° 27° (NNE) 04:35:21 437.425
Oscar 19 28 Jun 04:29:14 04:34:07 46° 315° (NW) 04:39:01 437.125/150
O/OREOS (USA 219) 28 Jun 04:29:16 04:33:39 54° 134° (SE) 04:38:02 437.305
AO-7 28 Jun 04:29:54 04:38:07 53° 104° (ESE) 04:46:17 29.400- 29.500
PCSat 28 Jun 04:31:24 04:36:37 48° 147° (SSE) 04:41:50 145.827
MOZHAYETS 4 28 Jun 04:33:32 04:37:24 25° 273° (W) 04:41:17
NOAA 15 28 Jun 04:37:03 04:39:44 14° 71° (ENE) 04:42:24 137.62
Gurwin Techsat 1B 28 Jun 04:40:46 04:46:01 58° 308° (NW) 04:51:15 435.225
BEESAT 3 28 Jun 04:47:17 04:50:41 28° 149° (SSE) 04:54:05 437.485
KKS-1 28 Jun 04:48:56 04:52:02 18° 278° (W) 04:55:08 437.445
ITAMSAT 1 28 Jun 04:49:59 04:55:16 81° 299° (WNW) 05:00:32 435.822/435.867
YUBILEINY 28 Jun 04:51:51 04:54:39 12° 332° (NNW) 04:57:27 435.215
GONETS M04 28 Jun 04:58:49 05:07:34 85° 254° (WSW) 05:16:20
NOAA 18 28 Jun 05:00:52 05:04:17 16° 74° (ENE) 05:07:42 137.9125
TIGRISAT 28 Jun 05:02:28 05:05:28 18° 7° (N) 05:08:31 435.000
UNISAT 6 28 Jun 05:07:17 05:10:19 18° 9° (N) 05:13:23 437.425
Cubesat XI-IV 28 Jun 05:11:28 05:15:03 18° 76° (ENE) 05:18:36 437.490
BUGSAT 1 28 Jun 05:13:05 05:15:39 16° 344° (NNW) 05:18:13 437.445
JAS-2 28 Jun 05:15:23 05:21:07 33° 339° (NNW) 05:26:17 435.910
Cosmos 2499 28 Jun 05:19:34 05:28:34 87° 250° (WSW) 05:37:17 435.465 / 435.565
STARS 28 Jun 05:23:07 05:25:57 17° 279° (W) 05:28:48 437.465
BEESAT 2 28 Jun 05:23:44 05:27:16 30° 151° (SSE) 05:30:47 435.950
STRAND 1 28 Jun 05:25:29 05:30:38 73° 59° (ENE) 05:35:49 437.568
NANOSAT C BR1 28 Jun 05:28:40 05:31:14 16° 357° (N) 05:33:49 145.865
CUSAT 1 28 Jun 05:31:03 05:35:21 18° 76° (ENE) 05:39:08 437.405
QB50P1 28 Jun 05:31:15 05:33:50 16° 358° (N) 05:36:25 145.935-145.965
POPSAT HIP 1 28 Jun 05:34:24 05:36:58 16° 358° (N) 05:39:32 437.405
AIST 1 28 Jun 05:38:06 05:40:48 17° 283° (WNW) 05:43:30
LilacSat-2 28 Jun 05:43:26 05:46:12 18° 84° (E) 05:48:58 437.200
CUTE-I 28 Jun 05:45:53 05:50:17 25° 84° (E) 05:54:39 437.470
QB50P2 28 Jun 05:46:23 05:48:58 16° 2° (N) 05:51:34 145.880/145.840
ANTELSAT 28 Jun 05:46:29 05:49:44 20° 18° (NNE) 05:53:02 437.575/2403.000
DANDE 28 Jun 05:47:37 05:52:46 19° 69° (ENE) 05:57:25 436.750
HORYU 2 28 Jun 05:48:24 05:52:51 56° 106° (ESE) 05:57:17 437.375
POLYITAN 1 28 Jun 05:48:59 05:51:34 16° 2° (N) 05:54:11 437.675
DUCHIFAT 1 28 Jun 05:49:22 05:51:54 16° 1° (N) 05:54:27 145.980
BRITE-PL 28 Jun 05:54:19 05:57:58 26° 89° (E) 06:01:32 437.365/2234.400
DOVE 4 28 Jun 05:56:46 05:58:44 13° 75° (ENE) 06:00:44 437.250
CUBESAT XI-V 28 Jun 05:59:22 06:03:19 26° 273° (W) 06:07:17 437.345
AIST 2 28 Jun 06:02:15 06:04:59 17° 132° (SE) 06:07:45 435.215
PRISM 28 Jun 06:02:53 06:06:50 43° 49° (NE) 06:10:46 437.425
AO-85 28 Jun 06:08:14 06:10:50 15° 238° (WSW) 06:13:20 145.980
Oscar 19 28 Jun 06:08:26 06:12:40 27° 339° (NNW) 06:16:54 437.125/150
O/OREOS (USA 219) 28 Jun 06:08:32 06:13:02 77° 338° (NNW) 06:17:33 437.305
PCSat 28 Jun 06:14:16 06:19:41 69° 172° (S) 06:25:07 145.827
NOAA 15 28 Jun 06:16:12 06:21:06 37° 95° (E) 06:25:58 137.62
Gurwin Techsat 1B 28 Jun 06:20:43 06:25:21 31° 332° (NNW) 06:29:58 435.225
Cosmos 2504 28 Jun 06:21:57 06:24:14 11° 335° (NNW) 06:26:30 435.465 / 435.565
AO-7 28 Jun 06:23:08 06:31:35 83° 310° (NW) 06:40:01 29.400- 29.500
Cosmos 2491 28 Jun 06:23:26 06:31:21 36° 0° (N) 06:39:15 435.465 / 435.565
BEESAT 3 28 Jun 06:24:03 06:27:49 42° 171° (S) 06:31:35 437.485
CANX-2 28 Jun 06:24:42 06:25:05 10° 69° (ENE) 06:25:28 2200.000
ITAMSAT 1 28 Jun 06:29:34 06:34:24 38° 323° (NW) 06:39:13 435.822/435.867
HO-68 28 Jun 06:29:51 06:34:37 18° 69° (ENE) 06:39:22 435.675
GOMX 1 28 Jun 06:30:50 06:34:26 27° 91° (E) 06:38:03 467.674
TIGRISAT 28 Jun 06:37:27 06:41:04 25° 30° (NNE) 06:44:45 435.000
NOAA 18 28 Jun 06:41:11 06:46:28 42° 98° (E) 06:51:44 137.9125
UNISAT 6 28 Jun 06:42:16 06:45:57 26° 32° (NNE) 06:49:43 437.425
CUTE 1.7 + AOD 2 28 Jun 06:43:46 06:45:30 12° 72° (ENE) 06:47:14 437.475
BUGSAT 1 28 Jun 06:47:29 06:49:51 15° 8° (N) 06:52:12 437.445
SEEDS 28 Jun 06:49:14 06:50:19 11° 70° (ENE) 06:51:24 437.485
Cubesat XI-IV 28 Jun 06:51:17 06:56:30 46° 100° (E) 07:01:41 437.490
GONETS M04 28 Jun 06:55:47 07:03:43 42° 280° (W) 07:11:40
CINEMA 3 28 Jun 06:55:59 06:58:40 16° 78° (ENE) 07:01:23 145.822/145.860
JAS-2 28 Jun 06:59:19 07:04:57 29° 4° (N) 07:10:03 435.910
BEESAT 2 28 Jun 07:00:45 07:04:34 44° 174° (S) 07:08:24 435.950
NANOSAT C BR1 28 Jun 07:02:52 07:05:48 19° 20° (NNE) 07:08:44 145.865
STRAND 1 28 Jun 07:05:16 07:10:12 44° 261° (W) 07:15:10 437.568
QB50P1 28 Jun 07:05:28 07:08:27 19° 21° (NNE) 07:11:26 145.935-145.965
POPSAT HIP 1 28 Jun 07:08:35 07:11:35 19° 22° (NNE) 07:14:37 437.405
CUSAT 1 28 Jun 07:09:56 07:16:28 44° 97° (E) 07:21:42 437.405
Cosmos 2499 28 Jun 07:12:51 07:21:06 44° 278° (W) 07:29:07 435.465 / 435.565
LilacSat-2 28 Jun 07:17:24 07:21:16 63° 106° (ESE) 07:25:08 437.200
QB50P2 28 Jun 07:20:29 07:23:39 21° 25° (NNE) 07:26:49 145.880/145.840
ANTELSAT 28 Jun 07:21:32 07:25:32 34° 42° (NE) 07:29:37 437.575/2403.000
POLYITAN 1 28 Jun 07:23:06 07:26:15 21° 25° (NNE) 07:29:26 437.675
DUCHIFAT 1 28 Jun 07:23:23 07:26:28 20° 24° (NNE) 07:29:34 145.980
HORYU 2 28 Jun 07:25:07 07:29:30 52° 308° (NW) 07:33:53 437.375
CUTE-I 28 Jun 07:25:56 07:31:20 65° 108° (ESE) 07:36:42 437.470
DANDE 28 Jun 07:26:48 07:34:16 42° 91° (E) 07:40:36 436.750
AAUSAT CUBESAT 2 28 Jun 07:29:18 07:31:19 13° 75° (ENE) 07:33:19 437.432
BRITE-PL 28 Jun 07:32:48 07:37:09 87° 115° (ESE) 07:41:19 437.365/2234.400
DOVE 4 28 Jun 07:33:39 07:37:38 40° 98° (E) 07:41:43 437.250
PRISM 28 Jun 07:37:58 07:42:06 64° 251° (WSW) 07:46:15 437.425
AIST 2 28 Jun 07:38:50 07:42:36 34° 155° (SSE) 07:46:23 435.215
FUNcube-1 28 Jun 07:44:16 07:45:14 11° 69° (ENE) 07:46:13 145.935
UWE-3 28 Jun 07:45:22 07:47:41 14° 74° (ENE) 07:50:02 435.000/436.395/437.385
Oscar 19 28 Jun 07:46:55 07:50:51 23° 3° (N) 07:54:47 437.125/150
O/OREOS (USA 219) 28 Jun 07:48:20 07:52:48 62° 2° (N) 07:57:16 437.305
NOAA 15 28 Jun 07:56:07 08:01:27 85° 296° (WNW) 08:06:43 137.62
PCSat 28 Jun 07:57:31 08:02:55 64° 196° (SSW) 08:08:18 145.827
CANX-2 28 Jun 07:58:30 08:02:22 30° 92° (E) 08:06:12 2200.000
Gurwin Techsat 1B 28 Jun 08:00:02 08:04:12 24° 356° (N) 08:08:22 435.225
BEESAT 3 28 Jun 08:01:20 08:05:04 40° 194° (SSW) 08:08:48 437.485
COMPASS 1 28 Jun 08:02:19 08:05:37 22° 85° (E) 08:08:54 437.405
ITAMSAT 1 28 Jun 08:08:43 08:12:56 25° 347° (NNW) 08:17:10 435.822/435.867
GOMX 1 28 Jun 08:08:56 08:13:08 90° 348° (NNW) 08:17:21 467.674
TIGRISAT 28 Jun 08:12:50 08:17:07 52° 54° (NE) 08:21:32 435.000
AO-7 28 Jun 08:15:55 08:24:00 55° 336° (NNW) 08:32:05 29.400- 29.500
HO-68 28 Jun 08:17:39 08:24:28 42° 96° (E) 08:31:16 435.675
UNISAT 6 28 Jun 08:17:46 08:22:05 56° 55° (NE) 08:26:32 437.425
CUTE 1.7 + AOD 2 28 Jun 08:18:36 08:22:38 36° 96° (E) 08:26:37 437.475
BUGSAT 1 28 Jun 08:21:02 08:24:10 22° 31° (NNE) 08:27:19 437.445
NOAA 18 28 Jun 08:22:02 08:27:37 80° 301° (WNW) 08:33:11 137.9125
Cosmos 2491 28 Jun 08:22:21 08:30:39 44° 31° (NNE) 08:38:55 435.465 / 435.565
SEEDS 28 Jun 08:23:28 08:27:22 32° 94° (E) 08:31:14 437.485
Cubesat XI-IV 28 Jun 08:31:32 08:36:57 72° 303° (WNW) 08:42:20 437.490
CINEMA 3 28 Jun 08:32:39 08:36:52 46° 100° (E) 08:41:16 145.822/145.860
CUBEBUG 2 28 Jun 08:32:47 08:36:39 27° 89° (E) 08:40:36 437.445
YUBILEINY 28 Jun 08:36:21 08:39:51 13° 33° (NNE) 08:43:20 435.215
NANOSAT C BR1 28 Jun 08:36:54 08:40:40 33° 43° (NE) 08:44:28 145.865
BEESAT 2 28 Jun 08:38:15 08:41:59 38° 197° (SSW) 08:45:44 435.950
QB50P1 28 Jun 08:39:34 08:43:23 34° 44° (NE) 08:47:14 145.935-145.965
JAS-2 28 Jun 08:42:35 08:48:52 38° 29° (NNE) 08:54:30 435.910
POPSAT HIP 1 28 Jun 08:42:42 08:46:33 35° 44° (NE) 08:50:25 437.405
HUMSAT D 28 Jun 08:44:00 08:44:38 10° 70° (ENE) 08:45:17 437.325/437.525
STRAND 1 28 Jun 08:47:32 08:50:45 16° 285° (WNW) 08:53:58 437.568
CUSAT 1 28 Jun 08:51:28 08:58:26 81° 297° (WNW) 09:03:51 437.405
LilacSat-2 28 Jun 08:51:52 08:55:31 40° 308° (NW) 08:59:11 437.200
AUBIESAT-1 28 Jun 08:51:59 08:53:52 13° 92° (E) 08:55:48 437.475
GONETS M04 28 Jun 08:52:35 08:58:19 20° 308° (NW) 09:04:04
QB50P2 28 Jun 08:54:44 08:58:42 40° 48° (NE) 09:02:42 145.880/145.840
POLYITAN 1 28 Jun 08:57:21 09:01:19 40° 48° (NE) 09:05:19 437.675
DUCHIFAT 1 28 Jun 08:57:29 09:01:23 38° 47° (NE) 09:05:19 145.980
ANTELSAT 28 Jun 08:57:31 09:01:56 86° 65° (ENE) 09:06:31 437.575/2403.000
ZACube-1 28 Jun 09:01:06 09:04:55 26° 88° (E) 09:08:45 437.345
HORYU 2 28 Jun 09:01:45 09:05:27 26° 331° (NNW) 09:09:08 437.375
AAUSAT CUBESAT 2 28 Jun 09:03:57 09:07:57 40° 98° (E) 09:11:56 437.432
Cosmos 2499 28 Jun 09:05:58 09:12:09 22° 305° (NW) 09:18:15 435.465 / 435.565
CUTE-I 28 Jun 09:06:10 09:11:26 54° 311° (NW) 09:16:42 437.470
DANDE 28 Jun 09:08:36 09:16:47 86° 113° (ESE) 09:23:32 436.750
DOVE 4 28 Jun 09:11:30 09:15:39 64° 301° (WNW) 09:19:56 437.250
BRITE-PL 28 Jun 09:11:30 09:15:25 34° 317° (NW) 09:19:12 437.365/2234.400
Oscar 11 28 Jun 09:12:01 09:15:53 29° 91° (E) 09:19:43 145.826/435.025
PRISM 28 Jun 09:15:05 09:18:12 20° 274° (W) 09:21:19 437.425
AIST 2 28 Jun 09:16:37 09:20:36 46° 178° (S) 09:24:36 435.215
FUNcube-1 28 Jun 09:18:55 09:22:55 31° 92° (E) 09:26:59 145.935
DELFI C3 28 Jun 09:19:26 09:22:32 21° 86° (E) 09:25:36 145.870
UWE-3 28 Jun 09:21:07 09:25:22 40° 97° (E) 09:29:42 435.000/436.395/437.385
Oscar 19 28 Jun 09:24:42 09:29:04 29° 27° (NNE) 09:33:27 437.125/150
O/OREOS (USA 219) 28 Jun 09:28:01 09:32:33 84° 28° (NNE) 09:37:03 437.305
M-CUBED/EXP-1 PRIME 28 Jun 09:30:27 09:33:25 23° 103° (ESE) 09:36:33 437.505
CANX-2 28 Jun 09:34:22 09:38:43 85° 293° (WNW) 09:43:03 2200.000
NOAA 15 28 Jun 09:36:02 09:40:55 39° 322° (NW) 09:45:47 137.62
COMPASS 1 28 Jun 09:37:41 09:41:56 69° 108° (ESE) 09:46:09 437.405
Gurwin Techsat 1B 28 Jun 09:38:34 09:42:59 27° 20° (NNE) 09:47:25 435.225
BEESAT 3 28 Jun 09:38:55 09:42:08 24° 217° (SW) 09:45:19 437.485
PCSat 28 Jun 09:40:48 09:45:51 39° 221° (SW) 09:50:51 145.827
ITAMSAT 1 28 Jun 09:47:03 09:51:15 25° 11° (N) 09:55:26 435.822/435.867
GOMX 1 28 Jun 09:47:16 09:51:01 32° 316° (NW) 09:54:45 467.674
TIGRISAT 28 Jun 09:49:36 09:53:55 54° 256° (WSW) 09:58:22 435.000
CUTE 1.7 + AOD 2 28 Jun 09:54:30 09:58:50 72° 298° (WNW) 10:03:08 437.475
UNISAT 6 28 Jun 09:54:41 09:58:58 49° 258° (WSW) 10:03:24 437.425
BUGSAT 1 28 Jun 09:55:04 09:58:57 49° 54° (NE) 10:02:52 437.445
SEEDS 28 Jun 09:59:12 10:03:30 79° 296° (WNW) 10:07:47 437.485
Cosmos 2504 28 Jun 09:59:15 10:02:51 13° 34° (NNE) 10:06:30 435.465 / 435.565
NOAA 18 28 Jun 10:02:48 10:07:55 39° 325° (NW) 10:13:02 137.9125
ESTCUBE 1 28 Jun 10:03:06 10:04:55 12° 72° (ENE) 10:06:44 437.505/2401.250
HO-68 28 Jun 10:05:45 10:13:01 89° 118° (ESE) 10:20:16 435.675
AO-7 28 Jun 10:07:57 10:15:50 48° 3° (N) 10:23:44 29.400- 29.500
CUBEBUG 2 28 Jun 10:09:23 10:13:53 83° 111° (ESE) 10:18:32 437.445
CINEMA 3 28 Jun 10:09:57 10:14:14 59° 302° (WNW) 10:18:42 145.822/145.860
Cubesat XI-IV 28 Jun 10:11:41 10:16:34 36° 327° (NNW) 10:21:26 437.490
NANOSAT C BR1 28 Jun 10:11:55 10:16:08 88° 62° (ENE) 10:20:24 145.865
QB50P1 28 Jun 10:14:42 10:18:55 88° 240° (WSW) 10:23:12 145.935-145.965
BEESAT 2 28 Jun 10:16:01 10:19:08 22° 220° (SW) 10:22:15 435.950
HUMSAT D 28 Jun 10:17:47 10:21:39 31° 92° (E) 10:25:31 437.325/437.525
POPSAT HIP 1 28 Jun 10:17:53 10:22:07 85° 245° (WSW) 10:26:23 437.405
Cosmos 2491 28 Jun 10:20:10 10:28:57 74° 60° (ENE) 10:37:42 435.465 / 435.565
AUBIESAT-1 28 Jun 10:25:43 10:29:14 43° 114° (ESE) 10:32:59 437.475
JAS-2 28 Jun 10:26:16 10:33:20 66° 53° (NE) 10:39:37 435.910
LilacSat-2 28 Jun 10:26:24 10:29:08 19° 331° (NNW) 10:31:52 437.200
YUBILEINY 28 Jun 10:26:46 10:33:28 26° 62° (ENE) 10:40:12 435.215
QB50P2 28 Jun 10:30:11 10:34:24 72° 250° (WSW) 10:38:41 145.880/145.840
DX 1 28 Jun 10:30:58 10:31:55 11° 72° (ENE) 10:32:53 434.975-435.025
DUCHIFAT 1 28 Jun 10:32:46 10:36:58 75° 250° (WSW) 10:41:12 145.980
POLYITAN 1 28 Jun 10:32:49 10:37:02 71° 250° (WSW) 10:41:18 437.675
CUSAT 1 28 Jun 10:34:59 10:41:10 39° 320° (NW) 10:46:03 437.405
ANTELSAT 28 Jun 10:35:15 10:39:11 31° 268° (W) 10:43:15 437.575/2403.000
ZACube-1 28 Jun 10:37:21 10:41:51 79° 111° (ESE) 10:46:26 437.345
HORYU 2 28 Jun 10:37:52 10:40:57 19° 354° (N) 10:44:03 437.375
AAUSAT CUBESAT 2 28 Jun 10:39:32 10:43:43 64° 300° (WNW) 10:47:52 437.432
CUTE-I 28 Jun 10:46:10 10:50:48 30° 335° (NNW) 10:55:26 437.470
Oscar 11 28 Jun 10:48:08 10:52:34 90° 271° (W) 10:56:57 145.826/435.025
DOVE 4 28 Jun 10:49:26 10:52:56 26° 323° (NW) 10:56:28 437.250
BRITE-PL 28 Jun 10:49:59 10:53:03 19° 340° (NNW) 10:56:00 437.365/2234.400
GONETS M04 28 Jun 10:50:00 10:51:35 11° 337° (NNW) 10:53:09
DANDE 28 Jun 10:52:28 11:00:14 51° 316° (NW) 11:06:34 436.750
DELFI C3 28 Jun 10:54:03 10:58:07 69° 108° (ESE) 11:02:08 145.870
AIST 2 28 Jun 10:54:47 10:58:38 37° 201° (SSW) 11:02:30 435.215
FUNcube-1 28 Jun 10:55:11 10:59:41 87° 292° (WNW) 11:04:15 145.935
CUBEBUG 1 28 Jun 10:56:42 10:59:40 18° 82° (E) 11:02:37 437.445
UWE-3 28 Jun 10:57:41 11:02:10 70° 298° (WNW) 11:06:44 435.000/436.395/437.385
Cosmos 2499 28 Jun 10:59:18 11:01:56 12° 333° (NNW) 11:04:33 435.465 / 435.565
